EN

Hourly Weather Panteleymonovka

Today, 22 April, Thursday

Time Temperature Precipitation Wind Pressure Humidity
00:00 +11°C° 0 mm 1 mps 759 mmHg 34%
01:00 +10°C° 0 mm 1 mps 759 mmHg 36%
02:00 +9°C° 0 mm 2 mps 759 mmHg 38%
03:00 +9°C° 0 mm 2 mps 759 mmHg 39%
04:00 +9°C° 0 mm 2 mps 759 mmHg 40%
05:00 +9°C° 0 mm 2 mps 759 mmHg 41%
06:00 +10°C° 0 mm 1 mps 760 mmHg 42%
07:00 +12°C° 0 mm 1 mps 760 mmHg 36%
08:00 +15°C° 0 mm 1 mps 760 mmHg 31%
09:00 +19°C° 0 mm 1 mps 760 mmHg 25%
10:00 +20°C° 0 mm 2 mps 759 mmHg 23%
11:00 +23°C° 0 mm 2 mps 759 mmHg 20%
12:00 +25°C° 0 mm 2 mps 759 mmHg 18%
13:00 +26°C° 0 mm 3 mps 758 mmHg 18%
14:00 +26°C° 0 mm 3 mps 758 mmHg 18%
15:00 +27°C° 0 mm 3 mps 758 mmHg 18%
16:00 +26°C° 0 mm 3 mps 758 mmHg 21%
17:00 +25°C° 0 mm 4 mps 758 mmHg 25%
18:00 +23°C° 0 mm 4 mps 758 mmHg 29%
19:00 +20°C° 0 mm 4 mps 758 mmHg 31%
20:00 +18°C° 0 mm 4 mps 759 mmHg 33%
21:00 +14°C° 0 mm 4 mps 759 mmHg 36%
22:00 +13°C° 0 mm 4 mps 760 mmHg 35%
23:00 +12°C° 0 mm 4 mps 760 mmHg 35%

Tomorrow, 23 April, Friday

Time Temperature Precipitation Wind Pressure Humidity
00:00 +12°C° 0 mm 5 mps 760 mmHg 35%
01:00 +10°C° 0 mm 5 mps 761 mmHg 35%
02:00 +9°C° 0 mm 5 mps 761 mmHg 36%
03:00 +9°C° 0 mm 5 mps 761 mmHg 37%
04:00 +9°C° 0 mm 5 mps 761 mmHg 38%
05:00 +10°C° 0 mm 4 mps 761 mmHg 39%
06:00 +10°C° 0 mm 4 mps 761 mmHg 41%
07:00 +11°C° 0 mm 4 mps 761 mmHg 38%
08:00 +13°C° 0 mm 5 mps 761 mmHg 36%
09:00 +14°C° 0 mm 6 mps 761 mmHg 33%
10:00 +15°C° 0 mm 5 mps 761 mmHg 34%
11:00 +16°C° 0 mm 5 mps 761 mmHg 36%
12:00 +17°C° 0 mm 5 mps 760 mmHg 37%
13:00 +19°C° 0 mm 5 mps 760 mmHg 40%
14:00 +19°C° 0 mm 5 mps 760 mmHg 43%
15:00 +20°C° 0 mm 5 mps 760 mmHg 46%
16:00 +19°C° 0 mm 4 mps 760 mmHg 50%
17:00 +18°C° 0 mm 3 mps 760 mmHg 55%
18:00 +18°C° 0 mm 3 mps 760 mmHg 60%
19:00 +17°C° 0 mm 2 mps 760 mmHg 64%
20:00 +16°C° 0 mm 2 mps 760 mmHg 67%
21:00 +15°C° 0 mm 2 mps 760 mmHg 71%
22:00 +14°C° 0 mm 2 mps 760 mmHg 74%
23:00 +14°C° 0 mm 2 mps 760 mmHg 77%

Day after tomorrow, 24 April, Saturday

Time Temperature Precipitation Wind Pressure Humidity
00:00 +14°C° 0 mm 2 mps 759 mmHg 80%
01:00 +12°C° 0.3 mm 3 mps 759 mmHg 73%
02:00 +11°C° 0.3 mm 3 mps 759 mmHg 66%
03:00 +10°C° 0.3 mm 4 mps 760 mmHg 60%
04:00 +10°C° 0.1 mm 3 mps 760 mmHg 56%
05:00 +9°C° 0.1 mm 3 mps 760 mmHg 52%
06:00 +8°C° 0.1 mm 2 mps 760 mmHg 48%
07:00 +8°C° 0.1 mm 3 mps 760 mmHg 44%
08:00 +9°C° 0.1 mm 3 mps 760 mmHg 39%
09:00 +9°C° 0.1 mm 3 mps 760 mmHg 35%
10:00 +8°C° 0 mm 4 mps 760 mmHg 33%
11:00 +8°C° 0 mm 4 mps 759 mmHg 31%
12:00 +8°C° 0 mm 5 mps 759 mmHg 29%
13:00 +8°C° 0.1 mm 5 mps 759 mmHg 28%
14:00 +8°C° 0.1 mm 5 mps 759 mmHg 27%
15:00 +8°C° 0.1 mm 5 mps 758 mmHg 27%
16:00 +10°C° 0 mm 4 mps 758 mmHg 25%
17:00 +10°C° 0 mm 3 mps 758 mmHg 23%
18:00 +11°C° 0 mm 3 mps 757 mmHg 21%
19:00 +9°C° 0 mm 3 mps 758 mmHg 28%
20:00 +7°C° 0 mm 3 mps 758 mmHg 36%
21:00 +4°C° 0 mm 3 mps 758 mmHg 43%
22:00 +4°C° 0 mm 3 mps 758 mmHg 45%
23:00 +4°C° 0 mm 2 mps 758 mmHg 46%

25 April, Sunday

Time Temperature Precipitation Wind Pressure Humidity
00:00 +4°C° 0 mm 2 mps 758 mmHg 47%
01:00 +4°C° 0 mm 2 mps 757 mmHg 48%
02:00 +3°C° 0 mm 2 mps 757 mmHg 49%
03:00 +3°C° 0 mm 2 mps 757 mmHg 50%
04:00 +2°C° 0 mm 3 mps 756 mmHg 48%
05:00 +3°C° 0 mm 3 mps 756 mmHg 46%
06:00 +3°C° 0 mm 3 mps 756 mmHg 45%
07:00 +5°C° 0 mm 5 mps 756 mmHg 39%
08:00 +5°C° 0 mm 7 mps 756 mmHg 33%
09:00 +7°C° 0 mm 9 mps 756 mmHg 28%
10:00 +7°C° 0 mm 9 mps 756 mmHg 25%
11:00 +8°C° 0 mm 9 mps 756 mmHg 21%
12:00 +8°C° 0 mm 9 mps 756 mmHg 18%
13:00 +10°C° 0 mm 8 mps 756 mmHg 19%
14:00 +10°C° 0 mm 8 mps 756 mmHg 20%
15:00 +10°C° 0 mm 8 mps 756 mmHg 21%
16:00 +10°C° 0 mm 6 mps 756 mmHg 22%
17:00 +10°C° 0 mm 5 mps 757 mmHg 23%
18:00 +10°C° 0 mm 4 mps 757 mmHg 24%
19:00 +9°C° 0 mm 3 mps 757 mmHg 26%
20:00 +7°C° 0 mm 2 mps 758 mmHg 28%
21:00 +7°C° 0 mm 1 mps 758 mmHg 30%
22:00 +6°C° 0 mm 1 mps 758 mmHg 31%
23:00 +5°C° 0 mm 1 mps 758 mmHg 32%

26 April, Monday

Time Temperature Precipitation Wind Pressure Humidity
00:00 +5°C° 0 mm 1 mps 759 mmHg 32%
01:00 +3°C° 0 mm 2 mps 759 mmHg 34%
02:00 +3°C° 0 mm 2 mps 758 mmHg 35%
03:00 +2°C° 0 mm 2 mps 758 mmHg 36%
04:00 +2°C° 0 mm 2 mps 758 mmHg 38%
05:00 +2°C° 0 mm 2 mps 758 mmHg 39%
06:00 +2°C° 0 mm 2 mps 759 mmHg 41%
07:00 +4°C° 0 mm 3 mps 758 mmHg 35%
08:00 +7°C° 0 mm 4 mps 758 mmHg 29%
09:00 +9°C° 0 mm 5 mps 758 mmHg 24%
10:00 +12°C° 0 mm 5 mps 757 mmHg 22%
11:00 +14°C° 0 mm 5 mps 757 mmHg 20%
12:00 +15°C° 0 mm 5 mps 756 mmHg 18%
13:00 +16°C° 0 mm 5 mps 756 mmHg 19%
14:00 +16°C° 0 mm 6 mps 755 mmHg 20%
15:00 +16°C° 0 mm 6 mps 754 mmHg 21%
16:00 +16°C° 0 mm 6 mps 754 mmHg 24%
17:00 +15°C° 0 mm 6 mps 754 mmHg 27%
18:00 +14°C° 0 mm 6 mps 753 mmHg 30%
19:00 +13°C° 0 mm 5 mps 753 mmHg 36%
20:00 +10°C° 0 mm 5 mps 754 mmHg 41%
21:00 +9°C° 0 mm 5 mps 754 mmHg 47%
22:00 +8°C° 0 mm 4 mps 754 mmHg 50%
23:00 +8°C° 0 mm 4 mps 754 mmHg 52%

27 April, Tuesday

Time Temperature Precipitation Wind Pressure Humidity
00:00 +7°C° 0 mm 4 mps 754 mmHg 55%
01:00 +7°C° 0 mm 4 mps 753 mmHg 56%
02:00 +7°C° 0 mm 4 mps 753 mmHg 57%
03:00 +7°C° 0 mm 5 mps 753 mmHg 58%
04:00 +7°C° 0 mm 5 mps 753 mmHg 59%
05:00 +7°C° 0 mm 5 mps 752 mmHg 60%
06:00 +7°C° 0 mm 5 mps 752 mmHg 61%
07:00 +9°C° 0 mm 5 mps 752 mmHg 59%
08:00 +11°C° 0 mm 6 mps 752 mmHg 56%
09:00 +12°C° 0 mm 7 mps 751 mmHg 54%
10:00 +15°C° 0 mm 8 mps 751 mmHg 51%
11:00 +17°C° 0 mm 8 mps 751 mmHg 47%
12:00 +20°C° 0 mm 8 mps 750 mmHg 44%
13:00 +20°C° 0 mm 8 mps 750 mmHg 45%
14:00 +18°C° 0 mm 8 mps 749 mmHg 46%
15:00 +18°C° 0 mm 8 mps 749 mmHg 47%
16:00 +17°C° 0 mm 8 mps 749 mmHg 50%
17:00 +17°C° 0 mm 7 mps 749 mmHg 53%
18:00 +16°C° 0 mm 7 mps 748 mmHg 56%
19:00 +15°C° 0.3 mm 7 mps 749 mmHg 63%
20:00 +13°C° 0.3 mm 6 mps 749 mmHg 71%
21:00 +11°C° 0.3 mm 6 mps 749 mmHg 78%
22:00 +11°C° 0.7 mm 6 mps 749 mmHg 82%
23:00 +10°C° 0.7 mm 5 mps 749 mmHg 85%
Show more

We Need Your Consent

Meteoprog and our Service Providers may store and access personal data such as cookies, device identifiers or other similar technologies on your device and process such data to personalise content and ads, as well as provide social media features and to analyse the traffic.

  • Store and/or access information on your device

    Cookies, device identifiers or other information can be stored or accessed on your device for the purposes indicated above.

  • Personalised ads and content, ad and content measurement, audience insights, and products development

    Ads and content can be personalised based on a profile. More data can be added to better personalise ads and content. Ad and content performance can be measured. Insights about the audience who saw the ads and content can be derived. Such data can be used to develop or improve user’s experience, systems and software.

By clicking ‘I Agree’ you will allow the use of indicated cookies, device identifiers, web beacons or other similar technologies. Your settings can be changed in the browser on your device.

For certain purposes, legitimate interests may be relied on, rather than consent. You can read more about this in our Privacy and Cookie Policy.